| time (UTC) | temp C | wind direction | speed KPH | gust KPH | rain 1hr cm | rain 24hr cm | rain mn cm | humidity % | barometer mb |
| 20260906214958 | 33 | 121 | 1.6 | 1.6 | 0.00 | 0.00 | 0.00 | 33 | 1017.8 |
| 20260906214457 | 33 | 128 | 0.0 | 4.8 | 0.00 | 0.00 | 0.00 | 33 | 1018.0 |
| 20260906213956 | 32 | 128 | 1.6 | 14.5 | 0.00 | 0.00 | 0.00 | 34 | 1018.1 |
| 20260906213451 | 33 | 179 | 1.6 | 3.2 | 0.00 | 0.00 | 0.00 | 33 | 1018.3 |
| 20260906212949 | 32 | 144 | 1.6 | 3.2 | 0.00 | 0.00 | 0.00 | 35 | 1018.5 |
| 20260906212444 | 32 | 43 | 3.2 | 11.3 | 0.00 | 0.00 | 0.00 | 33 | 1018.5 |
| 20260906211939 | 32 | 103 | 3.2 | 6.4 | 0.00 | 0.00 | 0.00 | 31 | 1018.5 |
| 20260906211434 | 32 | 76 | 3.2 | 4.8 | 0.00 | 0.00 | 0.00 | 32 | 1018.6 |
| 20260906210929 | 32 | 141 | 1.6 | 4.8 | 0.00 | 0.00 | 0.00 | 33 | 1018.7 |
| 20260906210425 | 31 | 200 | 3.2 | 4.8 | 0.00 | 0.00 | 0.00 | 35 | 1018.5 |
| 20260906205919 | 31 | 71 | 3.2 | 6.4 | 0.00 | 0.00 | 0.00 | 36 | 1018.8 |
| 20260906205415 | 31 | 193 | 0.0 | 1.6 | 0.00 | 0.00 | 0.00 | 37 | 1018.8 |
| 20260906204911 | 31 | 157 | 0.0 | 6.4 | 0.00 | 0.00 | 0.00 | 38 | 1018.7 |
| 20260906204410 | 31 | 142 | 3.2 | 3.2 | 0.00 | 0.00 | 0.00 | 37 | 1018.8 |
| 20260906203909 | 31 | 232 | 1.6 | 6.4 | 0.00 | 0.00 | 0.00 | 37 | 1018.8 |
| 20260906203404 | 32 | 159 | 1.6 | 3.2 | 0.00 | 0.00 | 0.00 | 40 | 1019.1 |
| 20260906202901 | 32 | 108 | 0.0 | 3.2 | 0.00 | 0.00 | 0.00 | 38 | 1019.1 |
| 20260906202355 | 31 | 125 | 3.2 | 3.2 | 0.00 | 0.00 | 0.00 | 38 | 1019.1 |
| 20260906201855 | 31 | 116 | 1.6 | 11.3 | 0.00 | 0.00 | 0.00 | 39 | 1019.0 |
| 20260906201349 | 30 | 164 | 3.2 | 3.2 | 0.00 | 0.00 | 0.00 | 38 | 1019.2 |
| 20260906200845 | 30 | 180 | 0.0 | 4.8 | 0.00 | 0.00 | 0.00 | 42 | 1019.1 |
| 20260906200341 | 30 | 170 | 1.6 | 4.8 | 0.00 | 0.00 | 0.00 | 42 | 1019.4 |
| 20260906195836 | 29 | 171 | 0.0 | 3.2 | 0.00 | 0.00 | 0.00 | 42 | 1019.4 |
| 20260906195332 | 28 | 227 | 3.2 | 4.8 | 0.00 | 0.00 | 0.00 | 42 | 1019.4 |
| 20260906194828 | 29 | 173 | 3.2 | 4.8 | 0.00 | 0.00 | 0.00 | 41 | 1019.4 |
| 20260906194318 | 30 | 227 | 1.6 | 4.8 | 0.00 | 0.00 | 0.00 | 39 | 1019.7 |
| 20260906193813 | 30 | 127 | 1.6 | 9.7 | 0.00 | 0.00 | 0.00 | 39 | 1019.7 |
| 20260906193307 | 29 | 205 | 3.2 | 3.2 | 0.00 | 0.00 | 0.00 | 42 | 1019.8 |
| 20260906192803 | 30 | 30 | 6.4 | 6.4 | 0.00 | 0.00 | 0.00 | 41 | 1019.7 |
| 20260906192258 | 30 | 101 | 0.0 | 3.2 | 0.00 | 0.00 | 0.00 | 41 | 1019.8 |
| 20260906191757 | 29 | 159 | 0.0 | 4.8 | 0.00 | 0.00 | 0.00 | 42 | 1019.9 |
| 20260906191252 | 28 | 212 | 0.0 | 3.2 | 0.00 | 0.00 | 0.00 | 43 | 1019.9 |
| 20260906190752 | 28 | 195 | 0.0 | 3.2 | 0.00 | 0.00 | 0.00 | 45 | 1020.2 |
| 20260906190245 | 28 | 155 | 0.0 | 3.2 | 0.00 | 0.00 | 0.00 | 44 | 1020.1 |
| 20260906185745 | 27 | 325 | 1.6 | 1.6 | 0.00 | 0.00 | 0.00 | 45 | 1020.2 |
| 20260906185244 | 28 | 158 | 0.0 | 3.2 | 0.00 | 0.00 | 0.00 | 45 | 1020.4 |
| 20260906184739 | 28 | 150 | 0.0 | 1.6 | 0.00 | 0.00 | 0.00 | 47 | 1020.5 |
| 20260906184234 | 27 | 140 | 0.0 | 3.2 | 0.00 | 0.00 | 0.00 | 46 | 1020.7 |
| 20260906183729 | 27 | 57 | 0.0 | 4.8 | 0.00 | 0.00 | 0.00 | 50 | 1020.7 |
| 20260906183226 | 27 | 49 | 0.0 | 6.4 | 0.00 | 0.00 | 0.00 | 48 | 1020.5 |
| 20260906182725 | 27 | 112 | 0.0 | 3.2 | 0.00 | 0.00 | 0.00 | 46 | 1020.8 |
| 20260906182222 | 27 | 149 | 0.0 | 4.8 | 0.00 | 0.00 | 0.00 | 46 | 1021.1 |
| 20260906181717 | 27 | 170 | 0.0 | 1.6 | 0.00 | 0.00 | 0.00 | 49 | 1021.1 |
| 20260906181214 | 26 | 164 | 0.0 | 3.2 | 0.00 | 0.00 | 0.00 | 50 | 1021.4 |
| 20260906180708 | 26 | 177 | 0.0 | 4.8 | 0.00 | 0.00 | 0.00 | 52 | 1021.3 |
| 20260906180203 | 26 | 170 | 1.6 | 6.4 | 0.00 | 0.00 | 0.00 | 54 | 1021.4 |
| 20260906175701 | 26 | 120 | 0.0 | 1.6 | 0.00 | 0.00 | 0.00 | 53 | 1021.4 |
| 20260906175156 | 25 | 66 | 3.2 | 4.8 | 0.00 | 0.00 | 0.00 | 56 | 1021.6 |
| 20260906174655 | 25 | 133 | 0.0 | 1.6 | 0.00 | 0.00 | 0.00 | 57 | 1021.8 |
| 20260906174149 | 25 | 104 | 3.2 | 4.8 | 0.00 | 0.00 | 0.00 | 54 | 1021.8 |
| 20260906173645 | 26 | 181 | 1.6 | 1.6 | 0.00 | 0.00 | 0.00 | 54 | 1021.9 |
| 20260906173140 | 25 | 77 | 1.6 | 3.2 | 0.00 | 0.00 | 0.00 | 53 | 1022.2 |
| 20260906172639 | 25 | 227 | 0.0 | 4.8 | 0.00 | 0.00 | 0.00 | 58 | 1022.1 |
| 20260906172135 | 26 | 86 | 1.6 | 6.4 | 0.00 | 0.00 | 0.00 | 54 | 1022.1 |
| 20260906171634 | 26 | 183 | 0.0 | 3.2 | 0.00 | 0.00 | 0.00 | 56 | 1022.5 |
| 20260906171130 | 26 | 156 | 0.0 | 4.8 | 0.00 | 0.00 | 0.00 | 55 | 1022.2 |
| 20260906170627 | 25 | 164 | 0.0 | 1.6 | 0.00 | 0.00 | 0.00 | 55 | 1022.5 |
| 20260906170126 | 26 | 159 | 1.6 | 1.6 | 0.00 | 0.00 | 0.00 | 56 | 1022.2 |
| 20260906165622 | 25 | 116 | 4.8 | 6.4 | 0.00 | 0.00 | 0.00 | 55 | 1022.6 |
| 20260906165118 | 25 | 170 | 1.6 | 3.2 | 0.00 | 0.00 | 0.00 | 56 | 1022.5 |
| 20260906164616 | 24 | 167 | 3.2 | 3.2 | 0.00 | 0.00 | 0.00 | 57 | 1022.5 |
| 20260906164112 | 25 | 75 | 3.2 | 6.4 | 0.00 | 0.00 | 0.00 | 57 | 1022.1 |
| 20260906163608 | 25 | 145 | 0.0 | 0.0 | 0.00 | 0.00 | 0.00 | 55 | 1022.2 |
| 20260906163103 | 25 | 150 | 1.6 | 1.6 | 0.00 | 0.00 | 0.00 | 54 | 1022.2 |
| 20260906162600 | 25 | 214 | 0.0 | 0.0 | 0.00 | 0.00 | 0.00 | 55 | 1022.5 |
| 20260906162055 | 23 | 155 | 0.0 | 4.8 | 0.00 | 0.00 | 0.00 | 56 | 1022.5 |
| 20260906161550 | 25 | 183 | 1.6 | 1.6 | 0.00 | 0.00 | 0.00 | 54 | 1022.2 |
| 20260906161049 | 24 | 143 | 0.0 | 1.6 | 0.00 | 0.00 | 0.00 | 53 | 1022.2 |
| 20260906160548 | 23 | 129 | 0.0 | 0.0 | 0.00 | 0.00 | 0.00 | 56 | 1022.3 |
| 20260906160046 | 23 | 164 | 0.0 | 0.0 | 0.00 | 0.00 | 0.00 | 57 | 1022.2 |
| 20260906155544 | 22 | 169 | 0.0 | 3.2 | 0.00 | 0.00 | 0.00 | 58 | 1022.6 |
| 20260906155040 | 23 | 151 | 1.6 | 4.8 | 0.00 | 0.00 | 0.00 | 59 | 1022.7 |
| 20260906154536 | 22 | 161 | 3.2 | 4.8 | 0.00 | 0.00 | 0.00 | 60 | 1022.5 |
| 20260906154034 | 23 | 94 | 3.2 | 3.2 | 0.00 | 0.00 | 0.00 | 61 | 1022.7 |
| 20260906153533 | 22 | 180 | 0.0 | 0.0 | 0.00 | 0.00 | 0.00 | 63 | 1022.6 |
| 20260906153028 | 22 | 176 | 0.0 | 0.0 | 0.00 | 0.00 | 0.00 | 64 | 1022.6 |
| 20260906152522 | 21 | 148 | 1.6 | 3.2 | 0.00 | 0.00 | 0.00 | 65 | 1022.7 |
| 20260906152021 | 21 | 94 | 0.0 | 0.0 | 0.00 | 0.00 | 0.00 | 67 | 1022.6 |
| 20260906151517 | 21 | 133 | 3.2 | 4.8 | 0.00 | 0.00 | 0.00 | 67 | 1022.7 |
| 20260906151013 | 22 | 113 | 1.6 | 3.2 | 0.00 | 0.00 | 0.00 | 65 | 1022.8 |
| 20260906150508 | 21 | 146 | 1.6 | 1.6 | 0.00 | 0.00 | 0.00 | 67 | 1022.7 |
| 20260906150008 | 21 | 178 | 0.0 | 1.6 | 0.00 | 0.00 | 0.00 | 67 | 1022.8 |
| 20260906145507 | 21 | 86 | 1.6 | 1.6 | 0.00 | 0.00 | 0.00 | 67 | 1022.7 |
| 20260906145003 | 20 | 127 | 0.0 | 3.2 | 0.00 | 0.00 | 0.00 | 69 | 1022.6 |
| 20260906144456 | 20 | 70 | 1.6 | 3.2 | 0.00 | 0.00 | 0.00 | 67 | 1022.8 |
| 20260906143952 | 20 | 140 | 0.0 | 3.2 | 0.00 | 0.00 | 0.00 | 68 | 1022.6 |
| 20260906143447 | 19 | 81 | 3.2 | 4.8 | 0.00 | 0.00 | 0.00 | 70 | 1022.5 |
| 20260906142944 | 18 | 149 | 0.0 | 3.2 | 0.00 | 0.00 | 0.00 | 71 | 1022.7 |
| 20260906142442 | 18 | 135 | 0.0 | 0.0 | 0.00 | 0.00 | 0.00 | 69 | 1022.6 |
| 20260906141937 | 19 | 176 | 0.0 | 0.0 | 0.00 | 0.00 | 0.00 | 67 | 1022.7 |
| 20260906141432 | 19 | 129 | 0.0 | 0.0 | 0.00 | 0.00 | 0.00 | 65 | 1022.8 |
| 20260906140932 | 20 | 149 | 0.0 | 0.0 | 0.00 | 0.00 | 0.00 | 64 | 1022.6 |
| 20260906140427 | 19 | 150 | 0.0 | 0.0 | 0.00 | 0.00 | 0.00 | 66 | 1022.7 |
| 20260906135924 | 18 | 150 | 0.0 | 0.0 | 0.00 | 0.00 | 0.00 | 68 | 1022.7 |
| 20260906135423 | 17 | 151 | 0.0 | 0.0 | 0.00 | 0.00 | 0.00 | 69 | 1022.8 |
| 20260906134919 | 17 | 151 | 0.0 | 0.0 | 0.00 | 0.00 | 0.00 | 69 | 1023.0 |
| 20260906134415 | 17 | 187 | 0.0 | 0.0 | 0.00 | 0.00 | 0.00 | 69 | 1022.7 |
| 20260906133909 | 16 | 188 | 0.0 | 0.0 | 0.00 | 0.00 | 0.00 | 72 | 1022.6 |
| 20260906133405 | 15 | 188 | 0.0 | 0.0 | 0.00 | 0.00 | 0.00 | 74 | 1022.7 |
| 20260906132900 | 15 | 188 | 0.0 | 0.0 | 0.00 | 0.00 | 0.00 | 75 | 1022.7 |
| 20260906132355 | 15 | 188 | 0.0 | 0.0 | 0.00 | 0.00 | 0.00 | 77 | 1022.6 |
| 20260906131851 | 15 | 188 | 0.0 | 0.0 | 0.00 | 0.00 | 0.00 | 78 | 1022.5 |
| 20260906131347 | 15 | 188 | 0.0 | 0.0 | 0.00 | 0.00 | 0.00 | 79 | 1022.5 |
| 20260906130842 | 15 | 188 | 0.0 | 0.0 | 0.00 | 0.00 | 0.00 | 79 | 1022.6 |
| 20260906130342 | 14 | 188 | 0.0 | 0.0 | 0.00 | 0.00 | 0.00 | 80 | 1022.5 |
| 20260906125840 | 13 | 188 | 0.0 | 0.0 | 0.00 | 0.00 | 0.00 | 81 | 1022.6 |
| 20260906125338 | 14 | 188 | 0.0 | 0.0 | 0.00 | 0.00 | 0.00 | 81 | 1022.6 |
| 20260906124833 | 14 | 188 | 0.0 | 0.0 | 0.00 | 0.00 | 0.00 | 83 | 1022.5 |
| 20260906124329 | 14 | 187 | 0.0 | 0.0 | 0.00 | 0.00 | 0.00 | 84 | 1022.7 |
| 20260906123828 | 14 | 187 | 0.0 | 0.0 | 0.00 | 0.00 | 0.00 | 85 | 1022.2 |
| 20260906123323 | 15 | 188 | 0.0 | 0.0 | 0.00 | 0.00 | 0.00 | 85 | 1022.3 |
| 20260906122823 | 15 | 188 | 0.0 | 0.0 | 0.00 | 0.00 | 0.00 | 85 | 1022.3 |
| 20260906122318 | 15 | 187 | 0.0 | 0.0 | 0.00 | 0.00 | 0.00 | 85 | 1022.5 |
| 20260906121816 | 15 | 187 | 0.0 | 0.0 | 0.00 | 0.00 | 0.00 | 84 | 1022.3 |
| 20260906121311 | 15 | 187 | 0.0 | 0.0 | 0.00 | 0.00 | 0.00 | 83 | 1022.7 |
| 20260906120807 | 15 | 188 | 0.0 | 0.0 | 0.00 | 0.00 | 0.00 | 83 | 1022.5 |
| 20260906120303 | 15 | 188 | 0.0 | 0.0 | 0.00 | 0.00 | 0.00 | 83 | 1022.5 |
| 20260906115759 | 15 | 188 | 0.0 | 0.0 | 0.00 | 0.00 | 0.00 | 82 | 1022.5 |
| 20260906115253 | 15 | 188 | 0.0 | 0.0 | 0.00 | 0.00 | 0.00 | 81 | 1022.3 |
| 20260906114753 | 15 | 188 | 0.0 | 0.0 | 0.00 | 0.00 | 0.00 | 80 | 1022.5 |
| 20260906114248 | 15 | 188 | 0.0 | 0.0 | 0.00 | 0.00 | 0.00 | 79 | 1022.3 |
| 20260906113743 | 15 | 187 | 0.0 | 0.0 | 0.00 | 0.00 | 0.00 | 78 | 1022.5 |
| 20260906113243 | 15 | 188 | 0.0 | 0.0 | 0.00 | 0.00 | 0.00 | 77 | 1022.3 |
| 20260906112737 | 16 | 188 | 0.0 | 0.0 | 0.00 | 0.00 | 0.00 | 75 | 1022.3 |
| 20260906112233 | 16 | 188 | 0.0 | 0.0 | 0.00 | 0.00 | 0.00 | 76 | 1022.2 |
| 20260906111727 | 16 | 188 | 0.0 | 0.0 | 0.00 | 0.00 | 0.00 | 76 | 1022.5 |
| 20260906111222 | 15 | 187 | 0.0 | 0.0 | 0.00 | 0.00 | 0.00 | 76 | 1022.2 |
| 20260906110716 | 15 | 187 | 0.0 | 0.0 | 0.00 | 0.00 | 0.00 | 74 | 1022.2 |
| 20260906110206 | 15 | 188 | 0.0 | 0.0 | 0.00 | 0.00 | 0.00 | 72 | 1022.2 |
| 20260906105700 | 16 | 187 | 0.0 | 0.0 | 0.00 | 0.00 | 0.00 | 70 | 1022.1 |
| 20260906105156 | 16 | 188 | 0.0 | 0.0 | 0.00 | 0.00 | 0.00 | 68 | 1022.2 |
| 20260906104655 | 16 | 188 | 0.0 | 0.0 | 0.00 | 0.00 | 0.00 | 68 | 1022.2 |
| 20260906104155 | 15 | 188 | 0.0 | 0.0 | 0.00 | 0.00 | 0.00 | 70 | 1022.3 |
| 20260906103652 | 15 | 188 | 0.0 | 0.0 | 0.00 | 0.00 | 0.00 | 71 | 1022.2 |
| 20260906103148 | 15 | 188 | 0.0 | 0.0 | 0.00 | 0.00 | 0.00 | 70 | 1022.3 |
| 20260906102643 | 15 | 188 | 0.0 | 0.0 | 0.00 | 0.00 | 0.00 | 70 | 1022.3 |
| 20260906102142 | 15 | 188 | 0.0 | 0.0 | 0.00 | 0.00 | 0.00 | 71 | 1022.2 |
| 20260906101642 | 15 | 187 | 0.0 | 0.0 | 0.00 | 0.00 | 0.00 | 71 | 1022.2 |
| 20260906101137 | 15 | 188 | 0.0 | 0.0 | 0.00 | 0.00 | 0.00 | 72 | 1022.2 |
| 20260906100633 | 15 | 188 | 0.0 | 0.0 | 0.00 | 0.00 | 0.00 | 72 | 1022.5 |
| 20260906100127 | 16 | 188 | 0.0 | 0.0 | 0.00 | 0.00 | 0.00 | 71 | 1022.1 |
| 20260906095622 | 16 | 151 | 0.0 | 0.0 | 0.00 | 0.00 | 0.00 | 70 | 1022.0 |
| 20260906095118 | 16 | 151 | 0.0 | 0.0 | 0.00 | 0.00 | 0.00 | 68 | 1022.0 |
| 20260906094616 | 16 | 151 | 0.0 | 0.0 | 0.00 | 0.00 | 0.00 | 67 | 1021.9 |
| 20260906094113 | 16 | 151 | 0.0 | 0.0 | 0.00 | 0.00 | 0.00 | 67 | 1021.8 |
| 20260906093608 | 16 | 150 | 0.0 | 0.0 | 0.00 | 0.00 | 0.00 | 67 | 1022.0 |
| 20260906093103 | 16 | 187 | 0.0 | 0.0 | 0.00 | 0.00 | 0.00 | 68 | 1021.8 |
| 20260906092558 | 16 | 187 | 0.0 | 0.0 | 0.00 | 0.00 | 0.00 | 67 | 1021.9 |
| 20260906092053 | 16 | 187 | 0.0 | 0.0 | 0.00 | 0.00 | 0.00 | 67 | 1021.6 |
| 20260906091549 | 17 | 187 | 0.0 | 0.0 | 0.00 | 0.00 | 0.00 | 66 | 1021.6 |
| 20260906091045 | 17 | 187 | 0.0 | 0.0 | 0.00 | 0.00 | 0.00 | 65 | 1021.5 |
| 20260906090545 | 17 | 187 | 0.0 | 0.0 | 0.00 | 0.00 | 0.00 | 65 | 1021.5 |
| 20260906090040 | 17 | 164 | 0.0 | 0.0 | 0.00 | 0.00 | 0.00 | 65 | 1021.4 |
| 20260906085539 | 17 | 164 | 0.0 | 0.0 | 0.00 | 0.00 | 0.00 | 64 | 1021.4 |
| 20260906085039 | 17 | 163 | 0.0 | 0.0 | 0.00 | 0.00 | 0.00 | 63 | 1021.4 |
| 20260906084533 | 17 | 164 | 0.0 | 0.0 | 0.00 | 0.00 | 0.00 | 62 | 1021.5 |
| 20260906084032 | 18 | 150 | 0.0 | 0.0 | 0.00 | 0.00 | 0.00 | 61 | 1021.4 |
| 20260906083528 | 18 | 224 | 0.0 | 1.6 | 0.00 | 0.00 | 0.00 | 61 | 1021.3 |
| 20260906083028 | 18 | 149 | 0.0 | 0.0 | 0.00 | 0.00 | 0.00 | 61 | 1021.6 |
| 20260906082523 | 18 | 228 | 0.0 | 0.0 | 0.00 | 0.00 | 0.00 | 61 | 1021.5 |
| 20260906082019 | 18 | 228 | 0.0 | 0.0 | 0.00 | 0.00 | 0.00 | 61 | 1021.6 |
| 20260906081514 | 18 | 228 | 0.0 | 0.0 | 0.00 | 0.00 | 0.00 | 61 | 1021.6 |
| 20260906081010 | 17 | 229 | 0.0 | 0.0 | 0.00 | 0.00 | 0.00 | 62 | 1021.5 |
| 20260906080506 | 17 | 229 | 0.0 | 0.0 | 0.00 | 0.00 | 0.00 | 61 | 1021.4 |
| 20260906080002 | 18 | 229 | 0.0 | 0.0 | 0.00 | 0.00 | 0.00 | 61 | 1021.4 |
| 20260906075456 | 18 | 229 | 0.0 | 0.0 | 0.00 | 0.00 | 0.00 | 61 | 1021.5 |
| 20260906074950 | 18 | 229 | 0.0 | 0.0 | 0.00 | 0.00 | 0.00 | 60 | 1021.8 |
| 20260906074445 | 18 | 229 | 0.0 | 1.6 | 0.00 | 0.00 | 0.00 | 60 | 1021.9 |
| 20260906073943 | 18 | 229 | 1.6 | 1.6 | 0.00 | 0.00 | 0.00 | 60 | 1021.5 |
| 20260906073439 | 18 | 229 | 0.0 | 0.0 | 0.00 | 0.00 | 0.00 | 61 | 1021.6 |
| 20260906072935 | 17 | 229 | 0.0 | 0.0 | 0.00 | 0.00 | 0.00 | 61 | 1021.5 |
| 20260906072430 | 17 | 229 | 0.0 | 0.0 | 0.00 | 0.00 | 0.00 | 62 | 1021.5 |
| 20260906071926 | 17 | 229 | 3.2 | 3.2 | 0.00 | 0.00 | 0.00 | 62 | 1021.5 |
| 20260906071422 | 17 | 229 | 0.0 | 0.0 | 0.00 | 0.00 | 0.00 | 62 | 1021.6 |
| 20260906070918 | 17 | 229 | 0.0 | 0.0 | 0.00 | 0.00 | 0.00 | 63 | 1021.8 |
| 20260906070413 | 17 | 229 | 0.0 | 0.0 | 0.00 | 0.00 | 0.00 | 62 | 1021.9 |
| 20260906065908 | 17 | 230 | 0.0 | 0.0 | 0.00 | 0.00 | 0.00 | 62 | 1021.9 |
| 20260906065403 | 18 | 230 | 0.0 | 0.0 | 0.00 | 0.00 | 0.00 | 61 | 1021.9 |
| 20260906064859 | 18 | 230 | 0.0 | 0.0 | 0.00 | 0.00 | 0.00 | 59 | 1022.1 |
| 20260906064354 | 18 | 231 | 0.0 | 0.0 | 0.00 | 0.00 | 0.00 | 59 | 1021.8 |
| 20260906063849 | 18 | 232 | 0.0 | 0.0 | 0.00 | 0.00 | 0.00 | 58 | 1021.9 |
| 20260906063344 | 19 | 232 | 0.0 | 0.0 | 0.00 | 0.00 | 0.00 | 57 | 1021.8 |
| 20260906062839 | 20 | 233 | 0.0 | 0.0 | 0.00 | 0.00 | 0.00 | 56 | 1022.0 |
| 20260906062338 | 20 | 234 | 0.0 | 0.0 | 0.00 | 0.00 | 0.00 | 56 | 1022.0 |
| 20260906061834 | 20 | 235 | 0.0 | 0.0 | 0.00 | 0.00 | 0.00 | 55 | 1021.5 |
| 20260906061330 | 20 | 236 | 0.0 | 0.0 | 0.00 | 0.00 | 0.00 | 54 | 1021.6 |
| 20260906060824 | 20 | 237 | 0.0 | 0.0 | 0.00 | 0.00 | 0.00 | 53 | 1021.6 |
| 20260906060323 | 20 | 238 | 1.6 | 1.6 | 0.00 | 0.00 | 0.00 | 54 | 1021.5 |
| 20260906055818 | 19 | 239 | 0.0 | 0.0 | 0.00 | 0.00 | 0.00 | 54 | 1021.6 |
| 20260906055314 | 20 | 239 | 0.0 | 1.6 | 0.00 | 0.00 | 0.00 | 54 | 1021.6 |
| 20260906054809 | 20 | 240 | 0.0 | 0.0 | 0.00 | 0.00 | 0.00 | 53 | 1021.5 |
| 20260906054304 | 19 | 241 | 0.0 | 0.0 | 0.00 | 0.00 | 0.00 | 54 | 1021.5 |
| 20260906053800 | 20 | 242 | 0.0 | 1.6 | 0.00 | 0.00 | 0.00 | 54 | 1022.0 |
| 20260906053255 | 20 | 243 | 4.8 | 4.8 | 0.00 | 0.00 | 0.00 | 53 | 1022.0 |
| 20260906052750 | 20 | 194 | 1.6 | 1.6 | 0.00 | 0.00 | 0.00 | 53 | 1021.9 |
| 20260906052247 | 20 | 192 | 0.0 | 0.0 | 0.00 | 0.00 | 0.00 | 53 | 1021.8 |
| 20260906051744 | 20 | 197 | 0.0 | 4.8 | 0.00 | 0.00 | 0.00 | 52 | 1021.6 |
| 20260906051244 | 20 | 169 | 0.0 | 1.6 | 0.00 | 0.00 | 0.00 | 54 | 1021.6 |
| 20260906050738 | 20 | 187 | 1.6 | 3.2 | 0.00 | 0.00 | 0.00 | 55 | 1021.5 |
| 20260906050234 | 20 | 152 | 0.0 | 0.0 | 0.00 | 0.00 | 0.00 | 55 | 1021.3 |
| 20260906045732 | 20 | 152 | 0.0 | 3.2 | 0.00 | 0.00 | 0.00 | 55 | 1021.1 |
| 20260906045227 | 20 | 200 | 3.2 | 3.2 | 0.00 | 0.00 | 0.00 | 54 | 1020.7 |
| 20260906044723 | 20 | 172 | 0.0 | 1.6 | 0.00 | 0.00 | 0.00 | 53 | 1020.6 |
| 20260906044218 | 20 | 162 | 0.0 | 3.2 | 0.00 | 0.00 | 0.00 | 53 | 1020.7 |
| 20260906043714 | 20 | 171 | 0.0 | 0.0 | 0.00 | 0.00 | 0.00 | 54 | 1020.7 |
| 20260906043210 | 20 | 193 | 0.0 | 0.0 | 0.00 | 0.00 | 0.00 | 54 | 1020.5 |
| 20260906042709 | 20 | 193 | 0.0 | 0.0 | 0.00 | 0.00 | 0.00 | 54 | 1020.2 |
| 20260906042203 | 20 | 194 | 0.0 | 0.0 | 0.00 | 0.00 | 0.00 | 53 | 1020.1 |
| 20260906041658 | 20 | 194 | 0.0 | 0.0 | 0.00 | 0.00 | 0.00 | 52 | 1020.4 |
| 20260906041154 | 20 | 194 | 0.0 | 0.0 | 0.00 | 0.00 | 0.00 | 50 | 1020.1 |
| 20260906040649 | 21 | 197 | 0.0 | 0.0 | 0.00 | 0.00 | 0.00 | 50 | 1020.2 |
| 20260906040145 | 21 | 198 | 0.0 | 0.0 | 0.00 | 0.00 | 0.00 | 49 | 1020.5 |
| 20260906035644 | 21 | 195 | 0.0 | 0.0 | 0.00 | 0.00 | 0.00 | 48 | 1020.5 |
| 20260906035140 | 21 | 170 | 0.0 | 0.0 | 0.00 | 0.00 | 0.00 | 48 | 1020.5 |
| 20260906034635 | 21 | 153 | 0.0 | 0.0 | 0.00 | 0.00 | 0.00 | 47 | 1020.4 |
| 20260906034130 | 22 | 195 | 0.0 | 0.0 | 0.00 | 0.00 | 0.00 | 46 | 1020.4 |
| 20260906033625 | 22 | 196 | 0.0 | 0.0 | 0.00 | 0.00 | 0.00 | 46 | 1020.4 |
| 20260906033120 | 22 | 165 | 0.0 | 0.0 | 0.00 | 0.00 | 0.00 | 45 | 1020.6 |
| 20260906032617 | 22 | 197 | 0.0 | 0.0 | 0.00 | 0.00 | 0.00 | 45 | 1020.2 |
| 20260906032117 | 23 | 199 | 0.0 | 0.0 | 0.00 | 0.00 | 0.00 | 45 | 1020.4 |
| 20260906031612 | 23 | 179 | 0.0 | 0.0 | 0.00 | 0.00 | 0.00 | 44 | 1020.7 |
| 20260906031108 | 23 | 187 | 0.0 | 0.0 | 0.00 | 0.00 | 0.00 | 44 | 1020.2 |
| 20260906030607 | 23 | 187 | 0.0 | 0.0 | 0.00 | 0.00 | 0.00 | 43 | 1020.1 |
| 20260906025601 | 23 | 165 | 0.0 | 0.0 | 0.00 | 0.00 | 0.00 | 41 | 1020.0 |
| 20260906025100 | 24 | 165 | 0.0 | 0.0 | 0.00 | 0.00 | 0.00 | 41 | 1019.9 |
| 20260906024555 | 25 | 130 | 0.0 | 9.7 | 0.00 | 0.00 | 0.00 | 40 | 1019.8 |
| 20260906024049 | 25 | 298 | 1.6 | 3.2 | 0.00 | 0.00 | 0.00 | 38 | 1019.9 |
| 20260906023546 | 25 | 266 | 0.0 | 0.0 | 0.00 | 0.00 | 0.00 | 38 | 1019.7 |
| 20260906023040 | 25 | 266 | 0.0 | 0.0 | 0.00 | 0.00 | 0.00 | 38 | 1019.4 |
| 20260906022536 | 25 | 266 | 0.0 | 0.0 | 0.00 | 0.00 | 0.00 | 39 | 1019.5 |
| 20260906022031 | 25 | 266 | 0.0 | 0.0 | 0.00 | 0.00 | 0.00 | 37 | 1019.4 |
| 20260906021526 | 25 | 266 | 0.0 | 0.0 | 0.00 | 0.00 | 0.00 | 37 | 1019.4 |
| 20260906021020 | 25 | 267 | 0.0 | 0.0 | 0.00 | 0.00 | 0.00 | 37 | 1019.3 |
| 20260906020519 | 25 | 268 | 0.0 | 0.0 | 0.00 | 0.00 | 0.00 | 37 | 1019.4 |
| 20260906020019 | 26 | 269 | 0.0 | 0.0 | 0.00 | 0.00 | 0.00 | 36 | 1019.3 |
| 20260906015513 | 26 | 271 | 0.0 | 0.0 | 0.00 | 0.00 | 0.00 | 35 | 1019.1 |
| 20260906015012 | 26 | 276 | 0.0 | 1.6 | 0.00 | 0.00 | 0.00 | 34 | 1019.2 |
| 20260906014507 | 26 | 279 | 1.6 | 4.8 | 0.00 | 0.00 | 0.00 | 34 | 1019.2 |
| 20260906014003 | 26 | 210 | 1.6 | 3.2 | 0.00 | 0.00 | 0.00 | 34 | 1019.3 |
| 20260906013458 | 26 | 211 | 0.0 | 0.0 | 0.00 | 0.00 | 0.00 | 35 | 1019.0 |
| 20260906012948 | 26 | 211 | 0.0 | 1.6 | 0.00 | 0.00 | 0.00 | 34 | 1019.2 |
| 20260906012443 | 26 | 213 | 0.0 | 0.0 | 0.00 | 0.00 | 0.00 | 34 | 1019.3 |
| 20260906011942 | 27 | 216 | 0.0 | 0.0 | 0.00 | 0.00 | 0.00 | 34 | 1019.1 |
| 20260906011438 | 27 | 219 | 0.0 | 1.6 | 0.00 | 0.00 | 0.00 | 33 | 1019.3 |
| 20260906010933 | 27 | 268 | 0.0 | 3.2 | 0.00 | 0.00 | 0.00 | 33 | 1019.2 |
| 20260906010428 | 27 | 275 | 3.2 | 4.8 | 0.00 | 0.00 | 0.00 | 34 | 1019.4 |
| 20260906005925 | 27 | 313 | 0.0 | 0.0 | 0.00 | 0.00 | 0.00 | 34 | 1019.4 |
| 20260906005424 | 26 | 228 | 0.0 | 3.2 | 0.00 | 0.00 | 0.00 | 35 | 1019.4 |
| 20260906004922 | 27 | 229 | 1.6 | 3.2 | 0.00 | 0.00 | 0.00 | 35 | 1019.4 |
| 20260906004417 | 27 | 269 | 0.0 | 0.0 | 0.00 | 0.00 | 0.00 | 35 | 1019.3 |
| 20260906003913 | 27 | 269 | 0.0 | 6.4 | 0.00 | 0.00 | 0.00 | 35 | 1019.4 |
| 20260906003408 | 27 | 277 | 0.0 | 9.7 | 0.00 | 0.00 | 0.00 | 34 | 1019.7 |
| 20260906002903 | 27 | 282 | 3.2 | 12.9 | 0.00 | 0.00 | 0.00 | 34 | 1019.5 |
| 20260906002403 | 27 | 264 | 3.2 | 14.5 | 0.00 | 0.00 | 0.00 | 34 | 1019.3 |
| 20260906001858 | 28 | 255 | 0.0 | 11.3 | 0.00 | 0.00 | 0.00 | 33 | 1019.4 |
| 20260906001353 | 28 | 204 | 3.2 | 6.4 | 0.00 | 0.00 | 0.00 | 31 | 1019.3 |
| 20260906000848 | 28 | 223 | 0.0 | 9.7 | 0.00 | 0.00 | 0.00 | 32 | 1019.3 |
| 20260906000348 | 28 | 284 | 4.8 | 20.9 | 0.00 | 0.00 | 0.00 | 30 | 1019.5 |
| 20260905235843 | 28 | 105 | 0.0 | 11.3 | 0.00 | 0.00 | 0.00 | 30 | 1019.5 |
| 20260905235337 | 29 | 318 | 11.3 | 22.5 | 0.00 | 0.00 | 0.00 | 30 | 1019.5 |
| 20260905234833 | 30 | 309 | 9.7 | 16.1 | 0.00 | 0.00 | 0.00 | 29 | 1019.5 |
| 20260905234328 | 30 | 225 | 0.0 | 6.4 | 0.00 | 0.00 | 0.00 | 28 | 1019.3 |
| 20260905233823 | 30 | 250 | 1.6 | 4.8 | 0.00 | 0.00 | 0.00 | 28 | 1019.2 |
| 20260905233318 | 30 | 261 | 3.2 | 4.8 | 0.00 | 0.00 | 0.00 | 28 | 1019.1 |
| 20260905232817 | 31 | 176 | 3.2 | 3.2 | 0.00 | 0.00 | 0.00 | 28 | 1019.2 |
| 20260905232313 | 31 | 176 | 0.0 | 0.0 | 0.00 | 0.00 | 0.00 | 30 | 1019.1 |
| 20260905231809 | 32 | 176 | 0.0 | 0.0 | 0.00 | 0.00 | 0.00 | 26 | 1018.8 |
| 20260905231304 | 32 | 176 | 0.0 | 0.0 | 0.00 | 0.00 | 0.00 | 24 | 1018.8 |
| 20260905230800 | 32 | 131 | 0.0 | 3.2 | 0.00 | 0.00 | 0.00 | 25 | 1018.7 |
| 20260905230258 | 32 | 121 | 0.0 | 3.2 | 0.00 | 0.00 | 0.00 | 25 | 1018.6 |
| 20260905225758 | 32 | 147 | 0.0 | 0.0 | 0.00 | 0.00 | 0.00 | 25 | 1018.5 |
| 20260905225253 | 32 | 129 | 1.6 | 4.8 | 0.00 | 0.00 | 0.00 | 24 | 1018.4 |
| 20260905224752 | 32 | 125 | 0.0 | 0.0 | 0.00 | 0.00 | 0.00 | 25 | 1018.4 |
| 20260905224248 | 32 | 127 | 0.0 | 6.4 | 0.00 | 0.00 | 0.00 | 25 | 1018.5 |
| 20260905223743 | 32 | 168 | 0.0 | 9.7 | 0.00 | 0.00 | 0.00 | 25 | 1018.5 |
| 20260905223240 | 32 | 115 | 0.0 | 1.6 | 0.00 | 0.00 | 0.00 | 24 | 1018.5 |
| 20260905222736 | 33 | 106 | 3.2 | 9.7 | 0.00 | 0.00 | 0.00 | 23 | 1018.4 |
| 20260905222234 | 33 | 91 | 0.0 | 3.2 | 0.00 | 0.00 | 0.00 | 23 | 1018.6 |
| 20260905221731 | 34 | 134 | 3.2 | 9.7 | 0.00 | 0.00 | 0.00 | 22 | 1018.7 |
| 20260905221227 | 33 | 151 | 1.6 | 6.4 | 0.00 | 0.00 | 0.00 | 23 | 1018.4 |
| 20260905220723 | 35 | 165 | 1.6 | 9.7 | 0.00 | 0.00 | 0.00 | 22 | 1018.5 |
| 20260905220219 | 35 | 56 | 3.2 | 4.8 | 0.00 | 0.00 | 0.00 | 21 | 1018.4 |
| 20260905215718 | 34 | 113 | 0.0 | 4.8 | 0.00 | 0.00 | 0.00 | 23 | 1018.4 |
| 20260905215214 | 35 | 107 | 3.2 | 4.8 | 0.00 | 0.00 | 0.00 | 21 | 1018.6 |